Regional Weather Roundup
Issued by NWS

Home | Current Version | Previous Version | Graphics & Text | Print | Product List | Glossary On
Versions: 1 2 3 4 5 6 7 8 9 10 11 12 13 14 15 16 17 18 19 20 21 22 23 24 25 26 27 28 29 30 31 32 33 34 35 36 37 38 39 40 41 42 43 44 45 46 47 48 49 50
000
ASUS43 KLOT 271810
RWRIL

ILLINOIS REGIONAL WEATHER ROUNDUP
NATIONAL WEATHER SERVICE CHICAGO/ROMEOVILLE IL
1200 PM CST THU NOV 27 2014

NOTE: "FAIR" INDICATES FEW OR NO CLOUDS BELOW 12,000 FEET WITH NO
SIGNIFICANT WEATHER AND/OR OBSTRUCTIONS TO VISIBILITY.

* THESE STATIONS ARE NOT UNDER NWS QUALITY CONTROL. THEY ALSO MAY NOT
  REPORT WEATHER SUCH AS PRECIPITATION OR FOG.

ILZ001-002-007-009-015-016-024-271900-
NORTHWEST ILLINOIS

CITY           SKY/WX    TMP DP  RH WIND       PRES   REMARKS
MOLINE         SUNNY     20  10  65 NW15      30.43F WCI   6
6HR MIN TEMP:  20; 6HR MAX TEMP:  26; 6HR PCP: TRACE;

STERLING*      CLOUDY    25  18  74 NW12      30.38F WCI  14
SAVANNA*       PTSUNNY   25  15  65 NW9       30.40F WCI  15
$$

ILZ003-004-008-010-011-017-018-271900-
NORTH CENTRAL ILLINOIS

CITY           SKY/WX    TMP DP  RH WIND       PRES   REMARKS
ROCKFORD       FLURRIES  24  14  65 NW14      30.38F WCI  12
6HR MIN TEMP:  22; 6HR MAX TEMP:  25; 6HR PCP: TRACE;

FREEPORT*      PTSUNNY   22  13  69 NW12      30.38F WCI  10
ROCHELLE*      LGT SNOW  24  19  82 NW12G17   30.37S WCI  12
DE KALB*       CLOUDY    24  16  71 NW12G17   30.35S WCI  13
PERU*          CLOUDY    27  21  76 W16       30.39S WCI  15
$$

ILZ005-006-012>014-019>023-271900-
NORTHEAST ILLINOIS

CITY           SKY/WX    TMP DP  RH WIND       PRES   REMARKS
CHICAGO-OHARE  PTSUNNY   26  17  68 NW16      30.33S WCI  14
6HR MIN TEMP:  24; 6HR MAX TEMP:  27; 6HR PCP: TRACE;

CHICAGO-MIDWAY PTSUNNY   28  17  63 NW15      30.33S WCI  16
6HR MIN TEMP:  25; 6HR MAX TEMP:  30;

AURORA         CLOUDY    26  17  68 NW15      30.35F WCI  14
6HR MIN TEMP:  22; 6HR MAX TEMP:  27; 6HR PCP: TRACE;

LANSING*       CLOUDY    28  18  67 NW10      30.33S WCI  19
JOLIET*        FLURRIES  26  17  71 NW8G17    30.36S WCI  17
WAUKEGAN       CLOUDY    23  15  71 NW14      30.32F WCI  11
6HR MIN TEMP:  22; 6HR MAX TEMP:  24; 6HR PCP: TRACE;

DUPAGE AIRPORT CLOUDY    25  17  72 NW15      30.34S WCI  13
6HR MIN TEMP:  22; 6HR MAX TEMP:  26;

KANKAKEE*      CLOUDY   N/A N/A N/A W12G23    30.36S
WHEELING       CLOUDY    24  15  68 NW18G25   30.36R WCI  10
6HR MIN TEMP:  24; 6HR MAX TEMP:  26;

MORRIS*        CLOUDY    27  19  71 NW12G20   30.36S WCI  17
ROMEOVILLE*    CLOUDY    26  18  72 NW15      30.34S WCI  13
NORTHERLY ISL    N/A     27  18  69 NW14        N/A  WCI  16
$$

LMZ740>746-271900-
SOUTHERN LAKE MICHIGAN

STATION/POSITION SKY/WX   TEMP    WIND        PRES    VSBY  WAVE
                          AIR SEA DIR/SP/G                  HT/PER
                          (F)     (DEG/KT/KT) (MB)    (MI)  (FT/S)
SOUTHERN BUOY              29 42  310/ 23/ 29 1025.8F         6/ 6
WAUKEGAN HARBOR            23     300/ 11/ 18   N/A
HARRISON CRIB              26     310/ 17/ 20   N/A
BURNHAM HARBOR             27     300/ 10/ 15   N/A
CALUMET HARBOR             27     270/ 11/ 16 1025.6S
MICHIGAN CITY              29     290/ 22/ 25   N/A
$$

ILZ025>027-034>036-040-047-049-050-058-095>099-271900-
WEST-CENTRAL ILLINOIS

CITY           SKY/WX    TMP DP  RH WIND       PRES   REMARKS
QUINCY         PTSUNNY   25  16  68 NW13      30.47F WCI  14
GALESBURG*     MOSUNNY   22  16  79 W13       30.43F WCI  10
MACOMB*        MOSUNNY   21  16  81 W17       30.48F WCI   7
JACKSONVILLE*  CLOUDY    28  20  71 NW12      30.46S WCI  18
PITTSFIELD*    PTSUNNY   27  19  71 NW13      30.48S WCI  16
$$

ILZ028>032-037-038-041>044-048-051>054-059>061-271900-
CENTRAL ILLINOIS

CITY           SKY/WX    TMP DP  RH WIND       PRES   REMARKS
PONTIAC        LGT SNOW  28  24  83 NW13G18   30.38F WCI  18
BLOOMINGTON    LGT SNOW  26  23  88 NW10      30.38F FOG     WCI  16
DECATUR        LGT SNOW  28  23  81 W10       30.41F WCI  19
PEORIA         CLOUDY    26  18  71 W15       30.42F WCI  14
6HR MIN TEMP:  26; 6HR MAX TEMP:  28; 6HR PCP: TRACE;

LACON*         CLOUDY    25  19  77 W13       30.41S WCI  13
LINCOLN*       FLURRIES  28  23  80 W9        30.43F WCI  19
SPRINGFIELD    MIX PCPN  26  20  77 NW16      30.44F WCI  14
6HR MIN TEMP:  26; 6HR MAX TEMP:  28; 6HR PCP: TRACE;

TAYLORVILLE    CLOUDY    28  21  74 W14       30.43F WCI  17
$$

ILZ033-039-045-046-055>057-062-063-271900-
EAST-CENTRAL ILLINOIS

CITY           SKY/WX    TMP DP  RH WIND       PRES   REMARKS
CHAMPAIGN      FLURRIES  28  22  78 NW15      30.38F WCI  16
DANVILLE*      CLOUDY    28  22  79 NW12      30.34S WCI  17
RANTOUL*       FLURRIES  30  23  75 NW16      30.37S WCI  19
MATTOON        CLOUDY    28  21  75 NW16      30.39F WCI  16
PARIS*         CLOUDY    28  23  81 NW14      30.39F WCI  17
$$

ILZ079-100>102-271900-
SOUTHWEST ILLINOIS

CITY           SKY/WX    TMP DP  RH WIND       PRES   REMARKS
ALTON          PTSUNNY   30  23  74 NW14      30.46F WCI  20
BELLEVILLE     CLOUDY    31  25  76 NW10      30.46F WCI  23
CAHOKIA*       CLOUDY    33  24  69 N12       30.47F WCI  24
SPARTA*        CLOUDY    31  25  78 NW7       30.47F WCI  24
$$

ILZ064>066-069>071-074>076-080>082-084>086-088>090-092>094-271900-
SOUTH-CENTRAL ILLINOIS

CITY           SKY/WX    TMP DP  RH WIND       PRES   REMARKS
CARBONDALE     CLOUDY    31  26  82 NW6       30.48F WCI  25
6HR MIN TEMP:  29; 6HR MAX TEMP:  31;

CAIRO*         CLOUDY    35  27  74 NW6       30.50F WCI  30
EFFINGHAM*     LGT SNOW  28  20  71 NW13      30.43F WCI  18
MARION         CLOUDY    32  27  80 NW12      30.48F HAZE    WCI  23
MT. VERNON     CLOUDY    30  21  69 CALM      30.46S
CENTRALIA*     CLOUDY    29  22  75 NW7       30.45F WCI  22
SALEM*           N/A     31  25  78 W10       30.45F WCI  22
METROPOLIS*    CLOUDY    32  26  78 NW5         N/A  WCI  28
$$

ILZ067-068-072-073-078-083-087-091-271900-
SOUTHEAST ILLINOIS

CITY           SKY/WX    TMP DP  RH WIND       PRES   REMARKS
LAWRENCEVILLE  CLOUDY    30  23  75 NW21      30.43F WCI  17
FLORA*         SUNNY     29  24  81 NW12G18   30.44F WCI  19
FAIRFIELD*     CLOUDY    30  24  79 W6        30.44F WCI  24
HARRISBURG*    CLOUDY    31  26  83 NW8       30.48F WCI  24
ROBINSON*      CLOUDY    29  23  76 NW13      30.43F WCI  19
CARMI*         CLOUDY    32  28  86 NW12      30.45F WCI  23
$$

ABBREVIATIONS USED IN REMARKS
   TC - TEMPERATURE IN CELSIUS
  WCI - WIND CHILL INDEX
   HX - HEAT INDEX
  VSB - VISIBILITY
$$



USA.gov is the U.S. government's official web portal to all federal, state and local government web resources and services.